This is the latest recevied weather packets stored in our database for station/object KD2ZLA. If no packets are shown the sender has not sent any weather packets the latest 10 day(s).
| Time | Temp. | Humidity | Pressure | Rain* | Wind** | Luminosity | Snow |
|---|---|---|---|---|---|---|---|
| 1777997784 | 20.56° C | 57% | 1001.5 hPa | 0 mm | - | 54 W/m² | - |
| 1777997481 | 20.56° C | 57% | 1001.5 hPa | 0 mm | - | 51 W/m² | - |
| 1777997178 | 20.56° C | 56% | 1001.5 hPa | 0 mm | - | 84 W/m² | - |
| 1777996876 | 20.56° C | 57% | 1001.4 hPa | 0 mm | - | 257 W/m² | - |
| 1777996571 | 20.56° C | 56% | 1001.5 hPa | 0 mm | - | 274 W/m² | - |
| 1777996268 | 21.11° C | 54% | 1001.4 hPa | 0 mm | - | 209 W/m² | - |
| 1777995964 | 21.11° C | 54% | 1001.3 hPa | 0 mm | - | 178 W/m² | - |
| 1777995660 | 21.67° C | 53% | 1001.5 hPa | 0 mm | - | 251 W/m² | - |
| 1777995358 | 21.67° C | 53% | 1001.3 hPa | 0 mm | - | 288 W/m² | - |
| 1777995055 | 21.67° C | 53% | 1001.1 hPa | 0 mm | - | 394 W/m² | - |
| 1777994752 | 21.67° C | 53% | 1001.2 hPa | 0 mm | - | 369 W/m² | - |
| 1777994447 | 21.67° C | 54% | 1000.9 hPa | 0 mm | - | 303 W/m² | - |
| 1777994142 | 21.67° C | 54% | 1001.1 hPa | 0 mm | - | 309 W/m² | - |
| 1777993840 | 21.67° C | 53% | 1000.8 hPa | 0 mm | - | 281 W/m² | - |
| 1777993536 | 21.67° C | 53% | 1000.8 hPa | 0 mm | - | 262 W/m² | - |
| 1777993233 | 21.67° C | 54% | 1000.8 hPa | 0 mm | - | 386 W/m² | - |
| 1777992929 | 22.22° C | 54% | 1000.5 hPa | 0 mm | - | 399 W/m² | - |
| 1777992627 | 21.67° C | 54% | 1000.5 hPa | 0 mm | - | 588 W/m² | - |
| 1777992325 | 21.67° C | 56% | 1000.5 hPa | 0 mm | - | 673 W/m² | - |
| 1777992022 | 21.11° C | 54% | 1000.6 hPa | 0 mm | - | 432 W/m² | - |
| 1777991720 | 21.11° C | 54% | 1000.4 hPa | 0 mm | - | 320 W/m² | - |
| 1777991416 | 21.11° C | 56% | 1000.8 hPa | 0 mm | - | 341 W/m² | - |
| 1777991114 | 21.11° C | 55% | 1000.5 hPa | 0 mm | - | 347 W/m² | - |
| 1777990811 | 21.11° C | 56% | 1000.6 hPa | 0 mm | - | 362 W/m² | - |
| 1777990508 | 20.56° C | 56% | 1000.5 hPa | 0 mm | - | 260 W/m² | - |
* Rain latest hour (hover to see other rain measurements)
** Current wind speed in m/s (hover to see current wind gust speed)